Location: Allos
(44.2333°N, 6.6333°E)
Time: 03:13:06
(UTC+00:00)

Cosmos 1689 Rocket - Pass Details

Date: 01 December 2020
Orbit: 356 x 370 km, 97.5° (Epoch: 24 January)

Event Time Altitude Azimuth Distance (km) Brightness Sun altitude
Exits shadow 17:27:43 19° 139° (SE) 964 3.8 -16.0°
Drops below altitude 10° 17:28:59 10° 158° (SSE) 1,384 4.8 -16.2°
Sets 17:31:06 0° 171° (S) 2,232 6.0 -16.6°
